Location: Altleiningen
(49.5078°N, 8.0741°E)
Time: 04:30:27
(UTC+00:00)

SeaSat 1 - Pass Details

Date: 14 June 2025
Orbit: 738 x 740 km, 108.0° (Epoch: 12 July)

Event Time Altitude Azimuth Distance (km) Brightness Sun altitude
Exits shadow 23:37:35 30° 171° (S) 1,307 3.1 -17.2°
Maximum altitude 23:39:56 64° 243° (WSW) 818 2.5 -17.1°
Drops below altitude 10° 23:44:49 10° 325° (NW) 2,258 5.7 -17.1°
Sets 23:47:07 0° 329° (NNW) 3,186 6.6 -17.1°
